Location: Saluda
(35.2377°N, 82.3468°W)
Time: 03:56:07
(UTC+00:00)

Vanguard 2 - Pass Details

Date: 06 October 2022
Orbit: 553 x 2933 km, 32.9° (Epoch: 04 December)

Event Time Altitude Azimuth Distance (km) Brightness Sun altitude
Rises 02:05:02 0° 274° (W) 6,741 13.2 -36.4°
Reaches altitude 10° 02:13:14 10° 253° (WSW) 5,746 12.4 -38.0°
Maximum altitude 02:20:13 14° 229° (SW) 5,282 11.9 -39.2°
Drops below altitude 10° 02:26:48 10° 204° (SSW) 5,309 11.7 -40.4°
Enters shadow 02:32:05 - 187° (S) 5,679 11.8 -41.4°
Sets 02:33:50 0° 181° (S) 5,864 - -41.7°
